Home > Weather > Elizabeth > Past weeks

Flag for U.S.A. Weather for the Past 2 Weeks in Elizabeth, New Jersey, U.S.A.

Now
37 °F

Partly sunny.


Feels Like: 27 °F
Forecast: 30 / 39 °F
Wind: 20 mph from West

Location: Newark International Airport

Current Time: Feb 10, 2016 at 5:41:14 PM

Latest Report: Feb 10, 2016 at 4:51 PM


Visibility: 10 mi

Pressure: 29.67 "Hg

Humidity: 46%

Dew point: 18 °F

Location of ElizabethLocation

Historic Weather in Elizabeth — Graph

°F

Elizabeth Temperature Yesterday

Maximum temperature yesterday: 36 °F (at 3:51 PM)
Minimum temperature yesterday: 28 °F (at 5:51 AM)
Average temperature yesterday: 32 °F

High & Low Weather Summary for the Past Weeks

 TemperatureHumidityPressure
High58 °F (Feb 3, 2:51 PM)100% (Feb 3, 11:51 PM)30.44 "Hg (Feb 3, 11:51 PM)
Low26 °F (Jan 28, 6:51 AM)37% (Jan 27, 3:51 PM)29.47 "Hg (Jan 29, 12:51 PM)
Average39 °F66%29.96 "Hg
* Reported Jan 26 3:51 PM — Feb 10 3:51 PM, Elizabeth, Weather by CustomWeather, © 2016

Note: Actual official high and low records may vary slightly from our data, if they occured in-between our weather recording intervals... More about our weather records

Advertising

Elizabeth Weather History for the Previous 24 Hours

 ConditionsComfort  
Time TempWeatherWind HumidityBarometerVisibility
3:51 PM
Wed, Feb 10
39 °FPartly sunny.21 mph45%29.65 "Hg10 mi
2:51 PM39 °FPartly sunny.15 mph45%29.63 "Hg10 mi
1:51 PM40 °FMore clouds than sun.15 mph47%29.62 "Hg10 mi
12:51 PM40 °FBroken clouds.14 mph51%29.61 "Hg10 mi
11:51 AM39 °FPartly sunny.12 mph67%29.62 "Hg10 mi
11:02 AM36 °FBroken clouds.15 mph75%29.64 "Hg9 mi
9:51 AM33 °FMostly cloudy.13 mph85%29.64 "Hg7 mi
8:51 AM32 °FLight snow. Ice fog.9 mph92%29.63 "Hg2 mi
7:51 AM32 °FLight snow. Ice fog.9 mph92%29.62 "Hg1 mi
6:51 AM33 °FLight snow. Fog.10 mph88%29.61 "Hg3 mi
5:51 AM33 °FOvercast.9 mph88%29.60 "Hg7 mi
4:51 AM33 °FLow clouds.7 mph88%29.59 "Hg8 mi
4:04 AM32 °FOvercast.7 mph93%29.59 "Hg7 mi
3:51 AM33 °FOvercast.7 mph88%29.59 "Hg7 mi
3:02 AM34 °FFog.6 mph87%29.59 "Hg4 mi
2:51 AM32 °FLight freezing rain. Ice fog.6 mph92%29.59 "Hg3 mi
1:57 AM32 °FLight freezing rain. Ice fog.No wind93%29.60 "Hg3 mi
12:51 AM32 °FLight snow. Ice fog.5 mph88%29.60 "Hg3 mi
11:51 PM
Tue, Feb 9
33 °FLight snow. Fog.5 mph85%29.60 "Hg4 mi
11:04 PM34 °FLight snow. Mostly cloudy.No wind81%29.61 "Hg7 mi
9:51 PM32 °FLight snow. Overcast.No wind82%29.62 "Hg8 mi
8:51 PM33 °FLight snow. Mostly cloudy.5 mph78%29.62 "Hg7 mi
7:51 PM34 °FLight snow. Mostly cloudy.3 mph73%29.62 "Hg7 mi
6:51 PM35 °FMostly cloudy.6 mph70%29.61 "Hg10 mi
5:51 PM34 °FMostly cloudy.5 mph73%29.60 "Hg10 mi
Weather by CustomWeather, © 2016

See weather overviewHow to use our weather pages